Theta_e
312 312 313 313 313 313 313 314 315 315 316 317 318 318 317 317 317 317 318 318 318 318 319 320 319 317 316 316 315 315 315 315 314 314 314 315 315 315 315 316 318 318 317 317 316 315 315 315 315 316 317 317 318 318 318 318 317 320 331 333 324 323 321 318 319 314 316 321 313 308 310 312 311 307 307 308 307 307 306 305 306 306 306 307 306 307 306 304
312 312 312 312 312 312 312 313 313 314 315 315 316 317 317 317 317 317 317 317 318 318 318 320 320 318 317 317 316 315 315 314 314 314 314 315 315 315 316 316 318 320 318 319 318 316 316 315 314 315 317 317 318 318 317 317 316 320 330 329 324 326 318 313 314 311 312 316 311 309 310 311 312 308 307 309 306 304 306 304 304 305 305 305 305 305 305 304
311 311 311 311 311 311 311 311 312 313 313 314 315 315 316 316 316 317 317 316 317 317 318 319 320 320 318 317 316 316 316 314 314 314 314 315 315 315 315 316 318 320 320 319 319 318 317 316 315 314 316 317 317 318 317 316 316 316 321 326 328 324 315 310 312 312 312 313 310 309 309 309 310 309 308 308 305 303 305 305 302 304 304 304 305 305 304 303
311 311 311 311 310 310 311 310 311 311 312 313 313 314 315 315 316 316 316 316 316 316 317 318 319 320 319 318 317 317 317 316 315 314 314 315 315 316 315 315 317 319 319 319 319 319 318 317 315 314 315 316 316 317 316 315 315 314 317 323 321 314 313 313 312 313 312 311 311 309 310 309 308 309 308 306 307 306 304 306 307 307 306 305 304 304 303 302
311 311 310 310 310 310 310 310 310 311 311 312 312 313 313 314 315 315 316 316 316 316 316 317 318 320 320 319 318 318 319 320 318 314 314 315 315 316 316 315 316 319 319 319 319 319 319 317 315 315 316 316 316 317 315 313 314 314 313 314 312 310 314 314 311 313 312 311 311 309 311 311 308 308 307 307 312 310 307 309 310 309 308 307 306 304 302 301
311 311 310 310 310 310 310 310 310 310 310 310 311 312 312 313 314 314 315 315 316 316 315 316 318 319 320 319 318 319 320 321 318 315 314 314 315 316 316 315 316 318 318 318 319 320 320 317 316 315 315 315 315 316 315 312 313 315 312 309 310 311 313 314 312 313 312 312 311 309 311 310 307 308 307 307 310 311 309 310 309 308 308 307 306 304 302 301
311 311 310 310 310 310 310 310 310 309 310 310 310 310 311 311 312 313 314 314 315 316 315 315 317 319 320 319 319 318 319 320 318 316 314 314 315 315 316 316 316 317 318 318 319 320 320 318 316 314 314 315 314 313 313 312 312 316 315 310 311 311 312 313 312 313 312 312 311 310 311 308 308 310 308 306 309 310 309 310 309 308 306 305 305 303 302 301
311 311 310 310 310 310 310 310 310 310 310 310 310 310 310 311 311 312 312 313 314 315 315 315 317 318 319 319 318 317 318 319 318 315 314 313 314 315 315 316 315 316 317 318 318 319 319 318 315 313 314 315 314 313 312 312 312 315 315 311 311 312 312 313 312 313 312 311 310 309 309 308 309 309 306 307 309 308 308 309 309 307 306 304 304 303 302 301
311 311 310 310 310 310 310 310 310 310 310 310 310 310 310 310 310 311 311 312 313 314 315 315 317 318 319 319 318 318 318 319 319 316 314 314 314 314 315 315 316 316 317 318 318 318 319 317 314 313 314 313 313 312 311 313 313 312 313 311 311 312 312 312 312 312 312 311 310 309 309 308 307 307 307 308 309 307 307 307 307 307 305 304 303 302 302 301
311 311 310 310 310 310 310 310 310 310 310 310 310 310 310 310 310 310 310 311 312 313 314 315 316 318 319 318 318 319 318 318 320 317 314 314 314 314 315 315 316 316 316 317 317 318 318 317 315 314 314 313 312 311 311 313 314 311 311 311 310 311 311 311 312 312 311 310 309 310 309 306 305 307 309 308 307 307 306 306 306 305 304 303 302 302 301 301
311 311 310 310 310 310 310 310 310 310 310 310 310 310 310 310 310 310 310 311 312 312 314 315 316 317 319 318 318 318 317 317 319 319 316 314 314 314 314 315 315 315 315 316 316 318 318 317 316 315 315 315 312 311 311 312 312 310 310 312 310 309 309 309 310 310 309 310 309 310 309 305 305 307 310 307 306 306 305 305 304 303 303 302 302 301 300 300
311 310 310 310 310 310 310 310 310 310 310 310 310 310 310 310 310 311 310 310 311 312 313 315 316 317 318 318 317 317 317 317 319 319 318 316 314 313 314 315 315 315 315 315 316 317 317 317 317 315 315 313 312 312 312 311 311 310 311 314 314 314 313 308 308 309 308 311 309 309 311 309 308 309 309 307 306 305 303 304 303 302 302 301 301 300 299 299
310 310 310 310 310 310 310 310 310 310 310 310 310 310 310 310 310 311 310 310 310 312 314 315 316 318 318 317 317 317 317 317 318 318 318 316 314 314 314 314 315 315 315 315 315 317 317 316 316 316 313 312 313 312 313 310 310 312 310 313 319 323 320 308 307 309 307 310 310 309 314 315 313 309 307 306 305 303 301 302 301 300 300 300 300 299 299 299
310 310 310 310 310 310 310 310 310 310 310 310 310 310 310 310 310 311 310 310 311 313 314 315 317 317 317 317 316 317 317 318 318 318 317 315 314 314 314 314 315 315 315 314 314 316 316 316 316 315 312 312 311 310 314 314 314 315 311 316 322 320 324 315 306 309 309 310 309 310 314 315 316 311 305 305 304 303 301 300 300 300 300 300 300 299 299 299
310 310 310 310 310 310 310 310 310 310 310 310 310 310 310 310 311 311 310 311 311 313 314 316 317 317 317 317 316 317 317 318 318 318 317 315 314 314 314 314 315 314 315 314 314 316 315 316 315 314 312 311 313 315 321 325 324 320 314 323 325 317 325 321 306 306 311 311 307 310 316 314 315 310 305 304 303 303 301 299 300 299 299 300 299 299 299 299
310 310 310 310 310 310 310 310 310 310 310 310 310 310 310 310 311 310 311 311 312 313 314 316 316 316 317 317 316 316 317 318 318 318 317 316 314 314 314 314 315 315 314 313 313 315 315 315 314 313 311 310 318 325 327 327 329 326 317 321 327 319 320 320 309 304 308 311 308 310 315 316 314 307 302 303 301 301 300 298 299 299 300 300 299 299 299 298
310 310 310 311 310 310 310 310 310 310 310 310 310 310 310 310 310 311 312 311 312 313 314 316 317 317 319 318 317 317 317 317 317 317 316 316 314 314 314 314 315 314 313 313 314 314 315 315 313 313 312 311 318 327 325 325 331 330 321 319 323 319 315 318 316 307 305 310 311 311 312 313 313 306 300 301 301 300 298 298 299 299 299 299 299 299 298 298
311 310 311 310 310 311 311 310 310 310 310 310 309 310 309 310 311 311 311 311 312 314 315 317 317 318 318 316 317 317 317 317 316 316 316 315 315 314 315 315 314 314 313 313 313 315 315 312 314 319 320 317 321 325 324 327 329 325 322 320 320 318 314 316 317 310 307 310 312 312 312 310 311 307 301 301 301 299 298 299 299 299 298 298 298 298 298 297
312 311 311 310 310 310 310 310 310 310 310 310 309 309 309 310 311 311 312 313 315 316 317 317 317 318 316 314 315 316 317 317 316 316 316 316 315 315 316 314 314 313 313 315 316 315 313 313 316 322 324 323 323 321 322 329 326 320 320 320 319 318 314 313 314 309 306 309 311 310 310 310 310 310 304 300 300 299 298 299 299 298 297 297 297 297 297 297
313 312 312 311 311 310 310 310 310 310 309 309 309 309 309 310 312 314 313 314 315 316 316 315 315 315 315 315 315 315 315 315 316 316 316 316 316 315 315 314 314 313 313 320 321 313 312 318 320 322 325 328 327 319 317 322 318 315 316 316 315 314 313 311 312 308 304 308 312 310 309 309 308 310 306 301 299 298 297 298 298 298 297 297 297 297 297 297
313 312 312 312 311 310 310 310 309 309 308 309 308 308 309 310 313 314 312 312 313 313 313 313 313 313 314 315 316 315 315 315 315 316 316 316 316 315 314 313 313 315 314 314 315 313 313 318 323 328 324 321 322 316 313 314 312 312 313 313 313 313 312 310 309 308 305 307 313 312 310 309 308 309 307 303 300 298 297 297 298 298 298 298 297 297 298 297
313 313 312 312 312 310 310 309 309 309 308 308 307 308 310 311 313 312 311 313 313 311 312 312 312 312 312 313 314 315 315 316 315 315 315 315 315 314 313 313 315 319 314 310 315 319 319 321 325 323 313 310 313 311 312 313 312 313 313 313 315 313 314 313 310 308 307 307 311 312 309 308 308 308 307 305 302 301 301 301 301 300 299 298 298 298 298 297
312 312 312 312 311 310 310 309 309 309 308 308 307 308 310 311 312 312 312 314 314 312 311 312 313 312 312 313 313 314 314 315 315 315 315 313 314 314 312 312 316 319 315 315 321 322 323 325 319 309 305 311 313 310 312 313 312 315 314 314 317 314 315 318 314 310 309 308 309 310 308 308 308 307 308 306 303 303 303 303 303 301 301 300 300 300 300 298
309 310 311 312 311 310 310 309 309 309 308 308 308 309 311 312 312 313 313 313 314 314 311 313 313 312 314 313 313 314 314 315 315 315 315 313 312 312 311 312 314 317 315 317 320 321 323 319 306 303 308 313 314 311 312 313 315 318 315 313 316 315 314 317 314 310 311 311 308 309 312 315 312 309 310 307 302 303 303 302 302 301 301 301 301 301 300 299
307 308 309 311 311 311 310 310 309 309 308 308 308 310 312 312 312 313 313 312 314 314 312 313 314 314 314 314 314 314 314 315 314 314 313 313 312 311 311 310 312 317 318 317 317 319 320 310 303 309 311 311 314 315 316 316 317 322 320 314 315 316 314 314 313 311 315 317 309 309 317 320 314 312 313 311 306 305 304 301 301 300 300 300 300 300 300 299
306 307 308 309 311 310 310 310 310 309 309 308 309 310 312 313 313 314 314 312 313 315 315 314 315 316 315 315 314 313 315 316 312 313 313 312 312 311 312 311 310 316 318 316 316 319 315 306 307 315 314 312 313 315 318 316 316 320 319 314 313 313 312 312 312 311 317 318 309 310 318 318 313 315 317 315 312 310 307 304 302 300 300 300 300 301 300 299
306 307 307 308 310 310 310 311 310 310 309 310 311 311 312 313 312 312 311 310 312 315 317 315 315 316 315 314 313 313 319 317 310 311 311 311 312 310 314 314 311 312 310 311 317 317 311 308 310 314 314 315 314 317 318 314 317 321 314 313 315 312 312 312 309 310 314 312 308 309 312 312 312 314 315 312 311 311 309 307 303 300 300 301 301 302 301 300
309 309 308 307 308 310 311 310 311 310 310 312 313 312 312 313 311 311 310 309 311 316 318 316 314 315 315 314 312 312 314 313 312 312 309 310 310 309 313 315 315 315 308 311 321 316 310 314 315 313 315 316 317 322 318 312 319 319 310 310 312 310 311 311 308 309 309 308 311 311 308 311 314 313 311 308 308 313 315 315 310 303 301 301 302 302 301 301
312 312 311 309 308 310 311 311 311 310 310 311 311 312 312 311 310 310 309 308 313 318 317 316 315 314 313 312 312 310 310 310 311 311 308 309 310 309 312 311 311 313 307 309 320 316 310 312 311 313 318 317 318 316 310 313 316 310 305 309 310 310 310 310 309 311 311 312 316 313 309 314 318 314 311 307 309 316 318 318 314 306 302 303 303 303 302 301
313 312 311 310 310 310 311 311 310 310 311 310 310 311 310 311 311 309 308 309 314 317 313 313 315 313 312 314 313 310 310 310 309 308 307 308 309 308 310 309 308 312 314 314 318 315 308 305 305 311 313 312 313 307 302 307 308 303 307 312 314 314 309 309 310 312 315 318 317 313 309 313 319 316 313 313 316 320 319 316 314 308 304 304 305 304 304 303
311 311 310 309 310 310 311 312 311 310 310 309 311 311 311 315 316 312 309 309 311 314 314 314 314 313 313 318 319 313 310 310 307 308 309 308 309 309 309 311 310 316 323 320 318 315 309 308 308 308 306 305 311 309 302 302 301 305 314 317 317 318 314 314 314 313 318 321 316 310 307 310 316 316 314 314 316 317 316 317 318 314 308 306 306 306 306 305
309 309 309 309 309 310 311 312 312 310 309 310 311 311 312 315 314 312 312 311 311 314 317 318 315 314 315 316 319 315 312 313 308 307 312 310 311 311 311 315 316 318 323 320 318 318 316 314 310 306 305 306 314 316 308 305 306 309 315 317 318 321 322 322 319 317 321 320 310 304 306 309 312 313 312 313 315 314 310 310 313 311 307 307 307 306 306 306
308 308 308 308 308 310 311 311 312 310 309 310 310 312 315 313 310 311 313 313 312 313 316 319 316 315 316 316 320 316 313 316 311 307 311 311 311 312 312 316 316 316 319 318 316 319 319 315 309 309 308 307 312 316 313 313 310 309 313 317 320 323 328 329 324 317 318 318 308 302 308 313 311 313 313 311 312 313 308 306 307 307 306 306 306 305 305 305
310 310 308 308 308 310 311 311 311 310 310 310 309 312 315 312 311 312 313 312 311 313 316 317 315 315 315 318 321 317 314 317 313 308 311 311 312 315 315 314 312 315 320 317 316 319 319 317 314 313 312 309 309 311 314 316 310 307 312 315 318 325 329 329 328 322 318 319 310 304 310 317 315 315 314 309 308 308 307 306 307 307 305 304 303 303 303 303
311 311 308 309 311 311 311 311 311 310 309 309 310 313 312 309 312 314 314 313 312 316 316 315 315 316 316 318 320 316 314 316 314 311 313 314 315 318 318 314 311 316 321 318 319 319 316 318 315 308 306 307 308 306 308 314 312 308 310 313 317 321 322 320 321 318 316 317 312 308 313 316 312 311 310 309 309 307 304 302 302 303 303 301 300 301 302 303
310 310 309 310 313 312 310 310 311 311 309 308 310 312 309 308 314 316 314 313 314 318 317 315 317 317 318 321 320 316 312 313 314 314 314 314 315 317 318 317 312 312 316 316 319 319 315 317 311 303 304 304 303 303 304 310 314 309 308 313 314 312 316 320 318 311 310 315 316 313 314 312 310 311 309 307 309 308 304 301 299 299 299 298 299 301 302 302
310 309 309 310 312 313 311 309 311 311 307 307 310 311 309 309 313 315 313 311 312 318 318 315 315 318 321 322 321 318 314 313 313 315 317 315 315 315 316 317 312 309 313 315 317 319 316 316 310 306 310 303 296 300 301 301 307 311 313 313 308 307 312 318 318 314 313 316 317 315 314 311 311 312 308 307 310 309 306 305 302 299 296 295 298 302 302 301
310 310 310 309 310 312 311 309 310 311 307 306 309 312 312 310 307 308 311 311 311 316 317 314 313 316 321 322 321 319 315 315 315 315 318 317 315 315 314 315 312 309 311 312 314 318 315 314 313 305 307 303 297 302 307 301 300 307 309 305 307 313 314 312 315 317 317 316 317 318 314 311 312 313 311 312 313 312 310 308 306 302 297 294 298 301 301 300
311 311 311 309 308 309 310 310 311 311 307 306 309 311 313 312 307 306 310 312 313 315 315 314 311 312 317 320 322 319 314 315 316 314 317 317 315 314 312 314 315 309 307 309 313 317 314 314 316 305 301 304 303 306 313 308 300 301 303 301 306 312 313 313 313 315 318 316 315 317 314 312 314 317 318 316 313 313 314 313 312 307 298 295 299 302 301 301
311 311 310 309 307 307 309 310 312 310 307 307 309 309 310 311 308 307 309 310 312 313 313 315 313 310 314 317 318 319 316 315 315 314 316 316 315 314 311 313 317 311 306 308 312 315 313 313 314 308 301 305 308 308 311 311 305 303 305 306 305 305 308 312 310 311 316 316 315 317 315 313 313 317 320 318 315 315 314 315 317 308 298 298 303 304 304 303
311 310 310 308 306 307 308 311 312 310 309 309 309 309 309 309 309 309 308 308 310 311 311 317 317 312 313 314 314 317 317 316 315 314 316 316 314 315 311 310 313 311 309 310 312 314 316 314 314 313 308 308 310 306 305 308 308 307 308 309 307 305 309 313 311 309 311 313 317 318 315 312 313 316 318 316 318 319 314 314 316 305 299 302 306 307 307 305
311 310 309 308 307 308 309 311 312 311 311 311 309 309 308 308 309 310 308 307 309 309 309 314 317 314 313 314 314 316 317 318 317 314 315 316 313 313 312 309 308 309 311 314 313 311 314 316 314 315 314 309 305 301 299 303 306 306 308 309 307 307 309 313 313 311 310 310 312 314 313 313 313 317 319 317 317 314 308 308 308 301 300 305 307 307 307 305
312 310 309 307 307 308 310 312 312 312 312 311 309 309 308 307 309 309 310 309 308 309 310 311 312 312 312 312 314 316 315 317 317 315 316 318 315 311 309 308 308 310 312 315 313 309 311 316 314 313 315 311 304 301 300 301 304 307 308 307 306 307 309 310 311 311 314 312 310 311 312 311 312 317 317 312 307 302 300 300 299 297 300 305 306 306 306 304
311 310 309 307 308 309 310 311 312 313 312 311 311 310 309 308 308 309 310 309 309 311 311 310 310 310 311 312 313 314 313 312 314 314 314 317 316 310 307 308 309 312 313 313 313 311 312 317 315 312 315 314 309 307 306 305 305 307 309 307 306 307 307 308 309 309 312 312 310 312 312 311 313 314 309 305 304 303 302 298 296 297 299 302 304 304 303 301
311 311 309 308 308 309 310 310 310 311 312 312 311 310 310 309 309 308 309 308 308 309 310 309 310 309 311 313 311 311 312 311 311 312 313 315 313 307 305 308 309 310 311 310 310 310 314 317 315 312 313 312 310 311 313 311 306 305 308 307 305 306 306 308 309 308 310 310 310 311 312 311 312 311 307 306 307 307 303 298 295 296 299 300 301 302 301 299
311 312 310 308 309 309 310 310 309 309 310 311 311 310 310 310 309 308 308 308 307 307 308 310 310 309 311 312 310 311 311 310 311 312 313 316 315 308 303 305 307 308 308 308 307 311 318 318 314 312 313 311 310 310 311 312 310 308 309 308 306 306 306 307 309 309 309 309 309 310 310 311 311 310 310 310 309 308 307 303 298 296 298 300 300 300 300 298
311 312 311 309 309 309 309 310 309 309 309 309 310 311 310 310 309 308 308 308 308 307 308 309 310 310 311 311 310 310 310 310 310 310 311 315 317 311 303 302 304 305 306 307 307 312 319 316 312 312 312 311 311 311 310 312 313 311 310 309 307 306 306 306 308 308 309 309 309 310 310 310 310 310 310 310 309 309 309 309 304 299 300 302 300 299 297 295
311 312 311 310 311 310 309 310 310 309 309 308 308 310 310 310 310 309 308 308 307 307 308 309 310 310 311 310 310 310 309 310 310 309 310 312 314 311 307 305 303 303 305 306 306 310 315 313 312 313 312 311 311 311 312 313 311 310 310 309 307 306 306 306 306 307 308 309 310 310 310 310 310 309 309 309 309 309 309 309 307 303 302 302 299 297 295 294
311 311 311 311 312 311 310 310 310 310 309 308 308 309 309 309 309 309 309 309 308 308 308 309 309 309 309 310 309 310 309 310 310 310 310 311 311 311 311 310 305 301 303 306 306 307 311 312 312 312 312 312 311 311 311 311 309 309 310 309 308 306 306 306 306 306 307 307 308 309 309 310 309 309 310 309 309 309 308 308 307 305 303 301 298 297 296 295
312 311 311 311 312 312 310 309 310 310 310 310 310 309 308 309 308 308 309 309 309 309 308 308 309 308 309 310 309 309 309 309 309 310 310 311 311 311 312 313 312 305 302 306 307 306 308 312 314 312 312 313 311 311 311 311 310 310 310 309 309 307 306 306 306 306 306 306 307 307 308 308 308 308 309 308 308 307 307 307 306 306 305 302 299 297 297 296
314 312 311 311 311 311 311 310 310 311 311 310 310 310 309 309 309 308 308 308 308 309 309 308 308 308 309 310 310 309 309 309 309 309 309 310 311 311 311 312 313 311 305 305 307 307 307 311 315 313 313 313 312 312 312 311 310 309 310 310 310 309 309 308 307 307 306 306 306 307 307 307 307 308 308 307 307 307 307 307 305 305 305 303 299 298 298 297
314 312 311 311 311 311 311 311 310 311 311 311 310 310 310 310 309 308 309 308 307 307 308 308 309 308 308 309 309 309 309 309 309 308 308 309 309 309 310 309 309 311 308 305 305 306 307 309 311 312 312 312 312 312 311 310 310 310 311 310 310 310 310 309 309 309 308 307 307 308 309 308 308 309 308 308 308 308 308 307 306 305 305 303 301 300 300 299
Wind_Speed
8 8 8 9 9 9 9 10 10 11 12 12 13 14 15 15 15 16 15 14 13 12 12 11 8 3 1 3 4 4 5 4 4 4 4 6 7 7 8 9 10 11 11 11 10 9 7 6 6 5 3 1 2 2 3 5 5 2 2 4 1 3 4 6 8 7 4 5 7 12 15 9 7 11 11 8 9 13 16 15 10 14 15 12 12 14 25 28
7 7 8 8 8 8 8 9 9 9 10 11 12 12 14 14 14 15 15 14 13 12 10 10 9 5 1 0 2 2 3 3 3 3 4 5 6 6 7 7 9 10 10 10 9 10 8 8 7 3 1 2 3 3 4 4 6 3 3 3 2 5 4 4 7 9 4 5 10 13 14 10 10 16 17 8 7 12 12 9 8 10 12 12 15 21 27 27
7 7 7 8 8 8 8 8 8 8 9 10 11 11 12 13 13 14 14 15 14 12 10 9 8 6 3 1 2 2 2 2 3 3 3 4 4 5 5 6 7 8 10 10 9 11 10 11 9 3 0 3 3 4 5 7 5 2 3 3 4 5 3 2 6 11 5 6 13 10 12 9 8 17 18 9 7 9 10 12 12 14 19 19 22 26 28 27
8 7 7 8 8 8 8 8 7 7 8 9 10 10 11 12 13 13 13 14 14 13 11 8 8 7 5 2 2 3 3 4 5 5 3 2 3 4 5 5 6 8 9 9 10 11 10 11 7 2 2 3 4 4 4 8 4 0 3 2 5 3 2 2 5 9 5 8 14 9 8 7 8 16 16 12 8 5 14 25 23 22 26 26 28 30 29 28
9 8 8 8 8 8 8 8 8 7 7 8 9 10 10 11 12 12 12 13 14 13 12 10 7 6 6 3 2 3 2 2 4 7 4 2 2 3 4 4 5 6 8 9 11 11 11 11 5 1 3 3 5 4 3 7 5 1 1 2 4 4 1 2 5 6 6 7 10 8 6 7 10 13 17 18 9 7 16 28 28 23 25 27 29 31 31 30
10 10 10 9 9 9 8 8 9 8 8 8 9 10 10 10 11 12 11 12 13 13 13 11 8 6 6 4 3 3 2 1 3 7 5 3 1 2 3 3 3 5 7 8 9 11 11 12 6 2 3 3 4 3 3 7 4 1 1 0 3 5 0 3 6 5 6 8 9 10 8 9 12 8 15 22 17 12 11 17 24 23 23 27 29 32 32 31
12 12 11 11 11 11 10 10 10 9 9 8 9 10 10 10 11 11 11 11 12 13 13 12 9 7 6 5 4 5 7 6 5 7 7 5 2 1 2 3 2 3 6 6 6 10 11 12 8 4 4 3 1 2 4 6 4 3 1 1 3 4 3 4 7 7 7 9 10 11 9 10 13 8 9 21 26 21 13 11 17 22 25 28 30 32 32 31
13 13 13 12 12 12 12 12 12 11 11 10 9 10 11 11 11 12 11 11 12 12 13 12 10 7 7 6 5 6 9 8 6 7 8 6 4 2 2 3 3 3 5 5 5 9 11 11 10 5 3 2 1 2 5 5 4 4 1 1 1 3 4 5 8 9 10 10 8 9 9 9 14 9 6 18 26 23 19 13 14 22 28 31 32 32 32 31
13 13 13 13 13 13 13 13 13 12 12 11 11 10 11 12 12 13 12 11 11 12 12 12 10 8 7 7 5 6 7 5 6 8 9 8 5 4 3 3 3 3 4 5 4 7 10 9 9 5 1 3 3 2 4 3 1 1 2 2 1 2 3 5 10 11 12 10 8 8 5 5 11 8 9 18 22 21 19 15 16 25 31 33 33 32 32 31
14 14 14 14 14 14 14 14 13 13 12 12 11 11 12 12 13 14 14 12 12 12 12 11 10 9 8 7 4 3 5 5 7 9 9 8 7 6 5 4 4 4 4 5 3 4 8 7 7 6 2 3 3 2 3 3 1 1 1 3 4 5 5 6 11 12 11 9 10 9 2 2 7 4 8 14 18 20 19 16 20 28 33 34 33 33 32 31
15 15 15 15 15 15 14 14 14 14 13 12 12 12 12 13 14 15 14 13 13 13 12 11 10 9 9 8 5 5 6 6 6 9 10 9 8 8 7 5 5 4 4 6 3 2 5 5 6 5 1 0 2 1 2 2 1 2 2 4 5 4 4 5 9 11 8 6 10 8 1 2 5 3 9 13 16 20 21 21 26 31 34 34 33 33 32 31
17 16 15 15 15 15 15 15 15 14 14 13 12 12 12 13 14 15 15 14 15 14 12 10 9 9 9 11 11 10 9 8 7 9 10 10 10 9 8 6 6 5 5 6 3 1 3 3 5 5 0 1 1 1 2 3 2 1 3 3 6 6 4 1 3 7 7 4 7 4 2 4 6 10 12 11 17 20 21 25 29 33 34 34 34 32 32 31
18 18 17 17 16 16 16 15 15 15 14 14 13 13 13 14 15 15 15 15 15 14 11 10 8 9 9 11 12 10 9 10 9 9 10 11 10 10 8 7 7 6 6 6 4 2 3 2 3 3 2 1 1 1 1 4 3 1 3 3 4 8 5 1 1 5 7 4 6 4 4 6 8 15 13 11 20 23 24 28 32 35 35 34 34 33 33 32
20 19 19 19 18 17 17 16 16 15 15 14 14 14 14 15 15 15 16 16 15 12 11 9 8 9 9 10 11 11 10 10 10 11 10 12 11 10 9 8 8 7 7 6 5 3 2 2 2 3 3 3 2 2 2 5 4 1 1 2 2 3 3 4 1 7 6 5 8 6 3 8 7 12 13 16 22 26 28 31 33 35 36 36 36 35 35 34
21 20 20 20 19 19 18 18 18 17 16 15 15 14 15 16 16 16 16 15 13 11 10 9 8 9 10 12 13 11 10 10 12 13 12 12 12 11 10 9 9 8 7 7 5 4 3 2 1 3 3 2 2 2 3 5 4 3 2 3 3 0 5 8 3 7 5 3 7 6 3 9 8 7 12 20 24 27 29 31 34 36 37 38 38 38 37 35
21 21 21 20 20 20 20 20 20 19 18 16 16 15 15 16 17 17 15 13 11 12 10 9 9 8 8 10 10 10 10 10 12 12 13 13 13 12 10 10 9 8 8 6 5 4 3 1 2 4 2 2 3 4 4 4 4 4 1 3 4 2 4 7 3 3 3 3 4 5 4 7 7 3 10 21 26 28 26 27 33 36 38 40 39 39 38 37
22 22 21 21 21 20 20 21 21 21 20 19 18 16 15 16 17 15 13 13 13 12 10 9 8 7 9 10 9 9 9 10 11 12 13 13 13 12 11 10 8 8 8 6 5 4 3 0 2 1 3 3 3 4 4 4 4 4 2 1 4 3 3 5 5 2 2 3 4 6 5 10 11 3 10 21 27 28 26 27 33 37 39 39 39 40 40 40
23 22 22 21 21 21 20 20 21 22 22 20 20 19 17 16 14 12 13 15 13 9 8 8 5 3 8 10 9 8 7 8 11 12 12 13 13 12 11 9 8 8 6 4 5 4 2 0 2 1 3 4 3 5 1 4 3 3 3 2 4 3 3 5 6 3 2 1 5 5 6 14 16 7 12 22 26 30 30 31 34 36 37 37 38 41 41 42
25 24 23 22 21 21 21 21 21 21 22 21 20 20 18 14 11 11 12 11 8 5 4 6 7 3 5 7 8 9 8 7 10 12 13 12 11 11 10 9 8 7 2 1 3 3 1 1 2 0 1 2 2 6 7 8 7 6 5 4 4 5 6 6 6 4 2 3 7 8 9 13 16 12 11 20 28 31 32 30 30 31 33 35 37 40 42 44
27 26 25 23 22 22 22 21 21 21 22 21 20 18 14 9 7 6 8 9 9 10 11 12 13 14 15 13 11 11 10 9 10 12 12 12 11 9 9 9 7 4 2 2 2 1 2 1 3 5 6 7 7 7 6 5 6 5 4 4 5 5 7 6 4 4 1 1 9 10 9 11 16 16 11 17 25 26 25 25 28 29 31 35 39 41 44 46
29 28 27 24 23 23 23 22 22 21 21 20 19 15 9 5 4 5 9 12 13 16 19 21 21 22 22 18 14 11 10 10 11 13 13 13 11 8 6 6 3 2 2 2 2 1 3 3 7 8 9 6 5 6 6 5 5 3 3 3 5 5 8 8 3 4 1 3 7 7 7 12 15 16 13 12 16 19 24 26 29 32 33 37 40 43 46 45
31 30 28 26 25 24 23 22 22 21 19 17 15 11 7 6 5 7 9 11 16 19 20 23 25 26 24 22 20 15 11 9 11 15 15 14 13 9 6 4 4 3 1 3 3 3 2 5 10 9 6 6 5 5 7 5 4 3 2 1 4 4 5 8 4 4 2 3 6 7 8 13 14 16 17 12 15 21 30 35 37 35 34 38 41 44 45 43
33 31 29 28 27 25 24 23 22 20 18 15 13 9 8 7 7 9 8 7 15 18 17 20 22 24 23 21 21 18 14 11 10 13 15 15 14 11 8 5 4 3 1 4 5 1 2 7 7 6 8 8 5 3 6 4 2 3 3 2 5 4 2 5 4 4 2 2 5 8 11 13 10 14 16 13 19 25 29 35 38 36 36 40 43 45 46 46
32 31 31 30 28 25 23 23 21 19 17 14 12 9 8 7 7 9 9 5 8 11 13 16 16 17 18 16 15 15 14 12 8 9 14 16 13 9 7 6 5 2 3 6 7 5 6 6 3 6 6 7 5 3 6 4 3 3 5 6 6 6 5 6 3 5 5 3 3 6 11 10 5 9 10 6 11 18 22 26 29 33 37 38 39 43 46 48
30 30 31 29 26 24 23 22 20 18 17 13 11 9 6 6 6 8 7 3 5 7 8 11 10 11 13 12 11 10 9 11 11 9 12 17 16 8 4 6 5 4 5 6 6 5 8 5 6 6 3 4 6 4 5 7 3 4 5 9 9 8 7 5 4 5 4 4 3 6 7 7 0 3 8 5 3 9 13 15 21 29 33 34 38 42 44 44
27 29 29 27 24 22 21 18 17 16 14 11 10 8 5 4 4 7 5 2 3 5 3 5 5 6 8 8 9 9 2 6 11 12 12 16 17 10 4 4 3 3 5 6 4 3 3 2 5 5 5 5 5 5 5 7 5 3 4 7 7 5 2 2 3 3 1 3 3 4 1 9 3 3 7 9 6 9 10 10 16 24 28 34 42 44 42 42
22 25 27 25 22 20 18 15 16 14 11 9 8 7 5 2 1 5 5 3 4 4 4 5 6 6 8 8 12 10 1 3 7 11 15 15 16 12 6 4 2 2 5 5 2 3 2 4 4 5 6 5 5 5 6 9 7 3 4 5 6 5 4 4 2 0 3 2 4 2 4 7 8 5 7 7 7 12 14 12 13 19 27 34 41 44 42 43
19 22 24 23 21 19 18 17 16 14 12 10 7 6 4 2 1 3 3 3 4 3 4 4 5 7 8 10 15 8 1 5 6 7 14 14 14 11 6 7 6 4 4 6 4 4 3 5 5 6 5 3 6 5 8 11 5 5 5 6 6 6 5 4 4 2 2 3 5 4 5 4 9 6 3 3 4 10 14 15 12 14 25 34 39 42 42 43
16 21 22 21 19 17 17 17 17 14 13 11 8 6 4 3 2 3 3 3 3 2 3 4 5 6 6 8 11 8 2 3 2 6 12 11 12 7 2 6 6 4 1 3 5 4 2 3 6 7 5 5 5 2 6 9 4 4 6 6 5 5 4 4 3 2 2 2 8 7 8 4 8 5 3 1 3 9 11 12 10 11 19 28 34 37 39 41
16 21 21 18 15 15 16 17 17 15 13 11 9 7 5 6 4 2 3 5 3 0 3 5 5 5 7 6 5 6 3 2 1 7 8 6 8 5 3 3 4 4 1 4 3 4 1 2 1 3 4 5 5 3 2 3 4 6 7 5 5 5 4 4 2 3 3 5 9 7 13 8 6 3 6 4 5 8 8 7 8 10 16 22 27 30 34 38
19 22 21 15 12 13 14 16 17 15 13 11 9 9 8 5 4 3 7 4 2 2 3 3 3 5 8 5 3 3 2 2 3 8 5 2 4 3 4 3 3 3 3 5 4 5 3 1 2 3 4 6 8 5 4 4 4 5 4 4 4 4 3 4 4 4 1 7 6 3 9 9 8 7 5 7 8 7 8 7 8 9 14 19 21 24 27 32
21 21 22 18 15 15 15 15 15 15 14 12 11 11 8 2 2 4 4 2 1 4 3 3 2 3 5 2 1 4 2 2 4 6 4 3 4 4 4 5 4 2 3 5 3 5 3 4 3 1 3 6 6 4 3 4 4 4 4 4 2 3 3 4 3 1 3 7 3 1 3 5 11 11 8 10 12 10 9 10 12 13 16 21 21 21 23 26
17 17 20 20 18 16 16 16 15 15 15 14 13 10 6 2 6 5 4 3 2 3 2 2 1 2 5 2 2 3 2 3 4 4 3 3 3 5 5 4 5 2 3 4 1 3 4 4 1 2 3 7 9 5 3 2 2 6 5 4 4 2 1 3 4 2 5 6 2 3 3 3 9 8 12 18 17 17 16 16 19 23 24 26 24 22 22 24
15 17 18 16 14 14 16 16 15 15 16 18 14 7 3 7 6 5 8 8 2 2 2 3 3 2 3 3 4 4 3 3 4 5 2 3 2 5 6 6 5 2 2 2 1 2 4 7 4 5 2 8 11 5 5 5 4 5 4 5 5 5 4 4 4 4 7 6 3 2 2 4 5 4 8 13 15 20 23 21 23 27 28 26 24 22 23 26
16 18 16 12 12 15 15 16 17 17 19 21 12 4 7 9 3 3 7 6 2 1 2 2 4 3 2 3 3 3 5 4 2 5 4 4 4 5 5 6 7 5 4 3 2 3 4 8 5 1 1 7 7 2 5 7 3 2 3 4 3 5 5 2 3 4 1 5 4 3 4 6 4 4 6 6 8 15 17 17 20 27 27 22 21 24 26 28
18 20 17 15 17 18 16 16 17 18 22 19 7 5 11 8 4 5 5 5 4 4 4 2 3 3 4 4 3 3 3 2 2 3 4 4 4 5 4 4 9 10 8 6 3 2 2 6 3 2 2 2 2 1 2 2 3 2 3 4 5 4 5 2 3 1 5 3 6 2 6 9 4 5 7 6 8 11 10 11 16 23 22 17 21 28 29 30
19 20 20 19 20 18 16 17 17 18 20 14 7 10 8 4 7 8 5 5 4 6 7 3 3 5 5 4 4 5 4 2 2 3 4 3 3 6 6 5 9 16 17 11 4 3 3 4 2 2 1 1 1 1 2 2 3 5 3 5 3 2 4 3 2 3 3 3 6 3 8 14 9 7 2 4 7 11 10 11 13 16 15 16 25 31 31 30
18 18 22 24 24 22 18 16 17 19 14 8 10 13 5 4 10 9 8 7 4 5 6 6 6 6 7 5 4 6 6 4 5 4 4 3 4 6 8 6 9 17 21 14 4 2 3 2 4 2 2 2 2 1 0 2 2 4 3 2 3 3 2 2 2 2 2 3 6 8 10 14 11 8 4 4 9 11 10 11 12 11 12 17 28 32 31 29
18 18 21 24 22 25 23 17 18 19 11 6 12 12 4 4 8 11 16 12 4 5 6 7 7 3 4 7 4 5 7 6 7 5 4 4 4 5 8 7 8 10 14 13 6 2 3 2 5 1 2 1 2 2 5 3 1 3 1 2 2 2 4 3 3 3 3 3 6 8 10 14 10 7 6 9 11 11 10 10 11 11 14 21 29 31 30 30
19 14 14 15 12 21 25 20 19 16 8 8 11 7 2 3 7 17 28 19 6 5 6 5 6 4 4 6 4 4 6 5 6 5 4 5 4 4 8 8 4 4 4 5 4 1 4 3 5 1 2 1 3 5 7 9 7 4 3 2 1 1 2 1 1 2 4 4 4 3 8 17 8 7 8 10 9 11 11 10 11 11 17 25 29 29 30 31
21 9 9 10 8 21 30 22 14 11 6 8 9 4 1 3 6 14 25 23 12 6 5 4 6 7 6 5 4 4 5 4 6 6 4 5 5 5 10 13 10 8 5 4 1 3 3 3 5 2 2 4 5 2 2 5 6 7 7 7 7 5 4 1 5 3 3 4 5 4 8 19 8 6 6 7 7 9 10 11 11 10 17 25 26 27 29 31
22 9 9 12 14 27 32 17 8 8 6 7 7 4 4 4 4 7 15 19 12 6 3 4 7 8 6 4 4 5 6 5 6 7 5 7 9 7 10 17 18 17 11 4 3 3 4 3 3 5 6 5 3 1 1 2 2 2 5 4 5 6 6 6 8 5 2 2 2 4 5 19 10 6 6 7 7 9 10 11 10 10 18 23 23 25 28 31
27 15 11 14 21 33 28 8 6 7 5 8 7 7 7 4 2 4 9 11 9 5 5 5 5 8 6 3 4 5 6 6 6 7 5 5 10 12 12 21 22 15 8 3 1 3 3 2 4 7 5 2 3 2 2 3 3 2 5 4 6 7 8 8 6 3 2 3 3 4 5 19 10 5 5 5 3 6 9 11 10 11 19 22 22 25 28 30
30 23 17 14 23 35 25 6 7 10 8 9 9 10 9 6 6 7 6 9 9 6 6 7 4 5 6 4 6 7 7 7 7 7 8 7 7 10 17 27 23 12 7 7 7 9 6 2 3 4 6 5 4 2 2 2 1 4 5 5 8 11 9 3 1 1 3 6 9 5 11 19 9 3 4 1 3 6 8 12 14 15 18 21 23 26 27 29
20 17 18 20 31 38 26 10 6 8 12 13 12 12 10 8 10 14 12 11 11 5 3 6 5 5 6 4 5 7 7 8 8 6 8 8 3 2 15 28 26 15 11 10 12 15 9 3 6 7 9 10 10 6 3 3 3 3 4 6 11 15 13 7 3 4 7 8 11 10 18 18 14 12 6 2 5 8 9 12 15 17 21 22 24 26 27 29
13 8 9 17 32 39 31 22 9 3 8 12 9 9 13 11 10 13 14 12 12 7 2 4 5 6 6 5 6 9 10 11 9 6 6 6 2 2 8 21 25 18 12 10 16 16 4 2 9 13 13 14 15 11 5 6 5 6 9 13 15 16 16 12 7 7 10 8 9 17 22 18 22 29 20 12 12 14 14 14 12 17 23 25 26 28 28 29
13 8 8 11 18 24 25 24 15 4 3 9 7 5 13 16 9 7 11 11 13 14 8 5 5 6 7 10 10 10 12 11 10 13 12 6 2 4 2 8 14 13 7 7 15 13 2 5 15 18 18 18 19 15 7 8 8 10 12 16 17 15 15 13 13 17 16 9 11 21 22 19 26 32 26 21 20 18 19 17 12 16 24 26 27 27 26 28
15 13 19 21 12 8 14 21 21 13 7 9 8 4 6 12 11 9 9 6 8 16 11 6 10 16 16 14 10 8 9 9 11 17 15 8 4 3 1 1 5 6 3 2 7 7 2 10 16 15 17 20 22 17 9 9 10 9 11 17 16 14 16 17 21 27 21 12 16 24 23 23 28 29 25 23 21 17 19 23 18 17 21 23 24 24 26 29
19 11 17 27 18 11 20 28 26 18 13 12 9 8 10 15 17 11 6 3 5 13 15 12 16 21 20 15 10 8 10 12 15 15 12 10 10 6 4 4 2 2 3 3 4 3 3 9 14 14 15 18 21 18 9 9 11 10 13 21 15 12 17 22 27 28 20 16 24 29 27 27 28 26 23 25 25 22 25 30 27 22 23 22 23 25 28 31
30 21 18 23 20 17 21 23 18 13 14 14 11 12 16 19 20 12 7 9 9 6 12 20 21 16 14 14 14 15 19 21 19 15 9 9 10 5 3 6 3 1 3 5 3 3 6 8 10 9 10 16 21 16 10 12 14 13 19 26 18 13 18 26 26 19 13 18 27 27 24 26 28 25 21 22 28 27 26 27 29 30 29 24 24 27 30 32
44 36 25 17 11 13 15 12 11 10 11 12 13 16 17 19 23 17 9 14 18 11 11 19 22 14 9 13 17 22 29 26 20 19 13 7 8 8 6 7 7 4 5 6 3 3 6 5 2 2 6 15 16 9 8 9 6 10 22 30 24 18 20 24 19 14 15 20 22 19 19 22 24 19 16 18 23 22 20 22 25 28 27 24 27 30 32 33
48 35 27 19 9 10 13 7 8 11 9 12 17 20 19 20 22 17 9 14 23 25 20 17 17 13 8 11 22 30 34 29 25 28 25 14 11 12 11 9 10 9 7 5 3 3 5 4 2 4 8 13 8 3 7 6 1 9 20 25 24 22 22 20 18 18 20 19 16 15 20 24 19 12 14 20 21 18 19 22 22 23 25 27 30 32 33 35
Wind_Direction
9 12 16 17 19 20 21 19 14 11 9 8 7 6 5 7 8 9 10 12 19 27 27 22 19 22 61 81 88 100 124 123 109 99 83 73 65 60 52 48 41 36 31 20 13 5 358 356 338 325 317 154 84 51 61 24 19 33 100 85 157 175 194 187 178 192 163 185 199 185 182 158 159 173 166 158 162 161 164 183 199 202 220 235 219 194 181 180
356 0 5 8 9 12 14 14 10 6 3 1 2 1 359 0 2 4 5 5 7 15 23 22 15 9 329 159 111 107 131 141 145 133 96 79 66 61 51 50 43 36 32 21 13 7 359 352 352 343 295 131 82 57 80 23 27 73 110 77 232 200 205 198 182 190 168 184 187 189 193 184 185 173 162 160 165 161 163 187 198 195 201 203 191 180 179 180
344 350 354 359 2 4 6 6 5 2 357 354 353 355 354 352 353 357 358 359 1 2 10 18 13 5 342 263 195 187 188 202 194 165 118 92 70 63 52 52 45 37 28 20 14 6 0 354 356 2 106 107 71 74 73 22 25 86 85 70 245 217 215 256 196 190 194 184 176 187 200 199 196 176 171 170 166 177 191 187 183 188 184 180 180 178 180 182
332 339 344 351 355 357 359 0 359 356 353 348 345 347 347 345 344 347 351 352 353 354 357 5 9 3 348 307 235 225 231 258 228 196 159 110 74 58 46 47 44 35 24 20 14 4 2 360 356 3 85 91 45 81 68 19 23 44 95 143 238 197 172 253 195 196 210 182 179 184 186 206 197 179 180 161 147 227 226 206 201 203 193 182 180 179 182 184
323 329 334 340 346 350 353 354 354 352 349 343 339 338 337 338 335 337 343 344 344 347 347 350 358 359 350 329 273 241 242 324 218 197 187 148 85 50 38 33 38 32 20 20 13 3 2 6 11 52 64 66 26 66 51 18 41 34 103 200 219 152 123 234 184 200 207 177 178 173 171 206 185 183 192 176 173 231 227 219 215 214 205 195 188 184 185 186
317 322 327 332 338 343 346 349 349 349 347 342 336 331 330 329 327 327 332 336 336 338 340 341 342 347 348 331 285 252 235 313 223 205 205 196 129 45 32 16 31 29 16 21 11 3 4 10 30 78 61 57 18 69 31 7 38 27 335 15 171 162 243 217 192 206 200 178 179 184 199 195 171 199 212 199 215 226 229 229 219 216 207 201 195 188 187 188
311 317 323 328 333 337 340 344 344 346 345 341 335 327 324 323 321 319 322 328 327 330 333 334 333 332 337 329 295 263 254 263 255 221 215 214 213 351 15 353 352 22 17 17 1 4 7 13 35 69 80 72 21 73 16 8 63 97 355 6 156 198 262 213 204 214 213 209 204 197 201 193 184 209 216 213 228 232 240 243 223 215 200 196 194 190 191 192
305 311 317 323 329 333 336 338 340 343 343 341 338 328 322 322 318 315 316 320 320 323 327 327 328 323 326 323 298 276 266 260 246 221 217 220 227 256 314 325 324 349 7 5 354 5 10 15 29 47 90 104 117 58 10 18 62 81 64 284 162 219 248 213 212 220 226 230 227 202 195 207 205 208 225 228 232 233 241 247 223 207 196 194 195 193 193 193
300 306 313 319 324 329 332 333 335 337 340 340 339 332 324 322 317 313 313 316 315 316 320 323 321 315 316 313 300 285 276 259 239 227 222 226 229 246 269 294 307 314 346 354 352 3 11 21 21 16 109 131 114 57 30 43 23 70 159 243 259 229 235 218 217 223 229 231 223 202 200 229 208 217 261 240 232 230 234 238 217 200 195 194 195 196 196 197
295 301 309 315 320 325 327 328 329 331 335 337 337 335 326 322 318 312 312 313 310 310 314 317 315 309 307 305 287 265 286 279 246 235 228 230 233 242 256 271 292 298 327 343 341 360 11 22 18 18 95 122 87 56 56 75 306 310 254 255 253 241 249 230 220 224 224 225 220 204 199 222 185 191 256 232 221 222 221 217 206 197 195 195 196 197 198 201
291 296 303 309 314 318 321 323 324 326 329 331 335 334 326 322 317 312 312 311 306 308 310 311 310 300 300 294 251 240 287 288 251 239 234 236 237 240 252 260 281 294 307 328 326 345 8 15 16 22 58 338 23 57 75 55 324 319 315 277 278 287 270 224 218 221 211 220 224 206 168 200 167 203 243 227 211 212 211 202 196 194 196 195 196 197 199 202
288 293 297 302 307 311 314 317 319 322 324 328 331 331 326 320 315 312 312 308 303 304 305 307 305 292 295 283 262 265 282 276 258 246 238 239 238 239 250 258 274 287 295 316 308 312 0 0 12 21 6 265 355 66 58 18 355 11 41 322 300 353 15 210 216 209 193 221 222 197 296 240 201 232 241 227 208 203 201 197 193 193 195 196 196 198 200 202
289 293 295 297 301 304 307 311 315 318 320 323 326 327 325 318 314 314 311 305 300 299 301 302 297 291 289 276 275 281 275 265 255 245 242 242 238 239 250 259 271 277 284 302 291 284 342 340 7 37 102 107 92 103 356 357 16 348 47 44 320 360 11 210 135 174 178 216 195 144 288 245 218 237 235 209 201 192 191 194 194 194 195 197 197 200 202 204
289 292 293 295 298 300 302 305 308 312 316 319 322 324 323 316 313 314 309 302 296 294 297 295 292 291 279 270 283 284 267 258 247 241 244 241 238 242 251 260 270 273 278 293 283 272 316 334 20 65 100 89 114 125 352 0 26 343 343 39 22 5 298 277 194 157 161 215 188 137 277 255 248 250 226 204 202 194 192 195 196 197 198 199 201 203 206 207
285 288 291 293 296 298 299 302 304 306 309 313 316 320 319 314 312 313 307 298 291 291 291 283 281 285 277 274 280 277 262 250 241 241 242 240 240 243 251 259 262 268 273 278 270 264 311 320 92 82 99 100 92 80 5 353 8 22 344 313 342 12 274 302 283 174 168 204 182 153 259 268 275 266 216 200 200 198 197 198 199 201 201 202 204 205 209 211
278 282 285 289 292 295 298 301 302 303 306 311 313 316 317 313 311 310 303 293 288 287 283 276 275 275 274 278 274 268 257 243 239 240 239 238 241 242 250 259 261 268 272 275 270 253 284 332 92 77 90 127 93 77 36 3 342 5 39 260 285 280 291 319 320 201 181 154 183 200 240 273 279 268 202 196 198 201 202 203 204 205 206 206 207 208 210 212
273 275 279 283 286 290 294 297 300 302 305 310 311 311 314 312 308 304 294 289 288 282 272 266 272 269 264 268 266 264 258 245 240 238 237 237 240 244 252 256 259 267 268 269 262 234 241 257 129 88 60 70 78 81 39 344 310 323 7 272 256 252 278 302 313 336 124 160 217 226 236 257 262 224 187 198 201 204 207 211 210 210 211 210 209 210 212 212
269 272 274 276 280 285 288 291 295 300 303 308 312 314 317 314 305 296 290 288 284 273 264 252 245 270 264 255 249 258 262 246 238 235 234 234 238 244 251 256 261 267 272 265 241 209 230 307 121 64 23 23 40 88 121 244 215 239 257 265 279 272 248 254 274 315 63 236 237 221 239 256 265 251 202 207 206 208 214 217 217 216 214 213 212 212 214 214
267 269 270 273 276 280 282 286 290 294 298 303 308 313 317 314 301 291 288 284 263 236 249 231 204 207 264 261 251 254 262 250 237 234 232 232 237 244 247 254 259 257 243 214 225 189 196 13 92 54 305 259 208 155 192 210 181 190 202 200 240 266 262 235 239 265 31 300 262 237 238 258 270 265 222 211 209 214 222 223 224 223 217 216 216 215 216 217
264 266 267 270 272 275 278 282 285 290 296 301 308 316 322 324 313 298 292 283 256 246 258 255 246 253 263 271 266 254 255 252 239 231 227 225 232 245 250 250 251 243 191 169 211 144 91 208 217 220 222 223 219 193 184 175 148 142 150 194 231 241 269 257 236 285 25 233 266 252 244 257 265 269 250 215 211 218 226 228 229 225 220 219 218 219 219 220
263 263 264 267 267 270 273 277 281 286 293 301 312 323 334 336 316 303 306 295 272 260 264 266 264 261 260 261 260 253 250 251 243 231 228 229 231 238 240 230 205 217 239 152 149 53 80 208 231 226 218 211 201 169 135 127 118 109 162 229 266 232 258 269 261 315 330 183 265 272 262 258 255 267 264 210 203 222 221 222 229 224 221 222 221 223 223 223
261 261 262 263 263 266 269 273 277 281 290 298 308 321 327 316 299 301 311 298 282 275 270 267 264 260 258 253 251 250 246 251 250 238 233 230 226 222 210 176 155 201 263 111 115 7 359 242 243 224 182 108 92 121 116 122 119 102 145 193 280 245 271 291 319 350 351 178 267 288 278 266 255 262 263 218 205 231 227 225 231 226 220 223 224 225 225 224
262 261 260 259 260 262 265 268 272 277 285 290 297 304 305 305 306 310 311 291 288 287 272 264 261 258 256 252 249 245 239 242 250 241 231 219 211 207 192 159 151 176 152 162 171 174 247 254 248 189 143 110 86 109 107 101 122 145 152 166 261 265 288 284 311 338 308 219 268 290 280 269 252 252 262 237 222 239 241 236 237 232 226 227 229 230 227 225
265 261 259 257 258 259 261 265 268 273 278 281 289 288 288 298 308 318 314 280 283 288 268 257 255 255 253 249 245 236 229 233 240 233 217 204 194 193 197 171 147 182 224 189 171 191 237 242 167 120 130 139 137 149 140 154 251 246 197 195 238 257 234 235 289 328 317 305 311 317 296 279 239 236 263 259 230 248 250 242 241 235 233 234 235 234 231 227
268 264 260 257 257 257 257 261 263 266 270 272 276 273 277 292 310 329 328 299 280 282 269 254 248 249 242 236 230 213 215 232 233 225 207 198 188 176 183 173 169 211 207 161 149 228 259 225 150 127 119 147 153 190 190 175 217 294 230 207 223 242 245 260 325 349 347 327 339 12 324 288 237 209 267 282 242 256 249 237 240 237 233 233 234 235 233 230
271 267 264 260 257 255 252 256 258 258 261 260 257 257 267 283 319 338 345 19 291 268 241 215 219 220 212 209 190 171 194 248 222 212 200 196 194 181 160 165 173 206 174 141 146 235 259 144 130 144 149 152 167 225 229 169 148 296 247 199 205 211 218 265 347 7 298 263 296 54 330 272 279 153 252 269 265 270 257 235 240 238 231 230 233 236 233 230
272 271 269 265 259 253 246 243 246 246 243 244 242 237 251 262 349 358 8 3 275 226 165 175 184 185 195 190 166 156 200 208 180 195 193 192 196 189 194 192 139 206 175 133 196 241 156 109 76 108 124 143 178 234 224 156 135 239 224 135 134 139 160 191 117 107 241 271 298 179 163 272 279 218 237 271 285 283 274 260 248 237 232 232 235 237 234 232
278 276 275 269 261 251 241 235 237 235 227 228 222 210 209 172 151 56 56 293 267 153 141 174 169 181 191 182 179 176 159 149 145 192 187 185 193 188 215 218 173 188 182 145 211 260 130 159 180 143 124 176 201 226 191 158 153 237 192 122 115 126 144 149 124 195 274 6 294 219 150 269 274 241 263 325 286 271 271 267 260 237 231 234 238 238 236 234
279 277 277 273 264 249 238 233 229 227 223 216 205 204 186 155 148 70 94 244 268 105 144 172 162 185 171 161 194 214 195 162 150 182 177 179 193 186 218 215 163 147 186 160 220 265 91 173 193 151 153 212 212 241 178 168 189 186 138 102 73 77 83 88 112 143 47 338 268 220 163 236 272 222 174 40 241 246 259 265 267 255 241 239 241 241 239 236
259 270 278 276 266 247 233 228 224 222 217 207 203 196 164 145 127 105 213 236 263 159 128 161 177 172 148 138 217 235 210 232 135 148 165 175 188 177 120 144 109 113 3 345 272 264 23 81 190 170 186 183 138 80 83 126 136 128 108 68 37 40 51 50 64 75 52 277 271 222 179 196 277 242 184 193 209 213 225 250 269 270 258 251 248 245 242 239
248 260 271 272 258 239 228 224 221 218 209 199 192 170 152 137 104 170 220 242 277 230 124 175 203 144 154 160 206 207 179 251 179 154 166 166 164 142 114 128 86 80 355 324 284 303 348 114 242 225 180 132 100 73 44 57 96 108 85 63 20 339 14 19 355 43 58 254 279 250 184 189 243 248 212 231 243 218 204 232 258 266 265 261 256 251 247 243
256 259 264 263 249 234 223 219 215 210 203 192 183 165 144 159 225 194 219 321 295 213 167 184 209 163 178 179 191 184 161 221 195 165 166 155 163 184 186 186 165 93 311 253 261 333 302 230 234 206 184 159 119 76 25 7 51 98 92 86 55 329 353 346 311 72 229 248 261 164 168 216 246 245 231 242 254 241 215 219 243 260 269 269 265 259 254 247
268 269 267 258 247 232 218 213 207 200 196 185 177 156 118 216 229 188 195 231 228 214 148 123 121 143 146 143 233 197 159 216 192 168 169 136 171 229 245 218 172 171 251 212 273 334 289 291 160 154 242 190 166 156 201 251 145 151 147 135 146 122 52 279 274 280 270 270 256 162 154 257 272 258 225 225 233 237 235 234 245 258 265 269 270 267 260 251
274 278 271 252 244 236 218 207 198 191 184 176 165 131 134 230 229 183 202 219 240 1 47 84 81 90 137 184 237 196 178 234 171 149 179 131 162 236 240 226 195 147 114 144 182 191 248 288 211 180 222 181 183 192 164 142 144 175 155 137 162 156 164 222 233 247 275 292 268 206 188 229 260 276 220 218 231 238 243 248 253 259 262 265 268 263 257 251
262 271 266 241 240 241 224 206 196 187 176 170 157 141 209 220 202 187 212 214 238 354 21 33 85 98 240 257 276 228 205 239 141 131 181 177 186 212 199 201 192 156 130 167 230 169 222 267 246 205 66 159 182 202 115 112 132 197 127 120 188 187 169 206 211 195 262 320 277 212 222 227 224 278 248 224 243 241 242 250 254 259 261 261 259 255 252 248
257 259 253 236 241 244 233 213 196 185 177 169 158 214 220 215 170 185 197 172 182 154 112 5 88 127 254 266 275 247 202 220 152 143 206 210 218 213 195 206 191 178 176 177 195 170 209 274 287 29 3 143 164 203 110 128 183 163 142 178 214 185 134 136 264 31 65 301 272 222 253 273 298 284 246 201 234 245 243 248 251 255 258 254 251 251 249 246
258 255 247 238 236 238 236 220 198 188 184 176 197 222 214 204 186 184 171 153 157 138 138 209 204 180 220 237 226 210 181 204 181 168 211 223 233 199 190 239 199 189 199 194 201 217 195 271 285 100 229 264 23 34 40 35 131 132 185 211 189 125 91 107 248 342 39 257 276 276 267 278 282 279 291 129 217 246 246 245 250 254 251 243 247 250 249 247
250 250 251 247 233 223 224 218 199 192 187 184 229 234 213 193 199 178 157 156 139 132 158 211 216 185 194 210 222 191 171 188 183 180 203 216 247 186 161 214 205 197 206 197 204 254 156 257 289 104 196 263 21 52 151 9 90 133 204 228 117 140 167 112 155 237 241 237 273 282 282 276 255 243 266 206 212 231 240 242 249 250 236 234 243 248 248 245
240 244 256 261 240 218 214 205 192 191 188 199 230 238 215 198 214 193 184 181 152 154 184 219 219 196 181 186 194 183 183 192 176 180 206 199 235 196 165 197 205 200 204 185 189 238 123 204 261 242 231 247 56 181 190 195 95 82 298 317 26 157 179 167 157 181 183 203 264 290 298 279 246 186 216 228 208 211 224 233 243 240 228 231 240 246 245 242
228 237 256 262 236 207 199 188 185 187 194 219 224 230 190 197 226 210 203 201 187 182 203 217 208 217 209 188 192 189 191 198 176 186 225 201 220 233 198 196 165 152 177 152 176 211 102 196 235 278 329 237 188 210 199 186 171 154 191 220 244 172 113 204 227 143 142 183 241 274 281 274 260 146 198 221 200 205 209 220 240 234 228 235 240 244 245 243
211 228 251 234 193 185 182 178 189 194 208 240 236 239 208 213 225 218 215 215 218 219 202 178 191 208 202 191 209 186 174 198 190 194 235 213 218 244 208 192 157 132 121 82 182 206 146 189 213 193 239 219 211 239 208 183 170 176 195 195 195 173 117 214 248 214 159 190 206 175 259 273 269 133 195 212 196 211 204 218 243 228 224 236 241 244 245 245
200 219 234 204 182 176 172 174 208 203 212 236 240 256 244 232 229 220 219 218 224 241 224 203 209 209 199 185 192 177 173 200 200 201 236 221 215 227 201 181 162 148 147 141 198 189 119 122 218 234 232 221 237 326 150 170 135 193 218 191 180 165 150 197 230 225 175 206 208 107 268 271 263 137 171 193 198 225 215 219 240 229 228 238 243 245 246 245
202 208 203 190 187 177 169 188 234 200 232 244 251 274 258 247 237 210 211 211 213 219 221 228 209 208 224 196 172 187 193 207 204 195 220 237 225 225 194 169 161 152 146 148 166 136 106 132 222 255 275 331 356 1 73 69 72 236 238 179 169 197 199 208 218 186 157 199 172 97 255 263 266 106 153 206 224 251 239 229 231 231 236 243 247 248 247 244
206 207 198 184 183 178 175 205 217 202 231 236 242 257 253 253 237 216 205 201 203 197 214 232 206 206 234 188 183 209 196 206 224 199 210 234 235 222 188 170 167 170 180 188 175 165 171 178 181 244 285 306 312 336 6 344 197 220 234 182 194 219 215 214 74 137 231 199 154 146 248 253 265 76 112 125 286 269 260 243 234 236 243 248 250 251 247 242
201 205 198 183 182 185 194 216 203 202 218 221 234 241 244 263 242 227 223 216 214 199 211 240 213 200 216 181 206 231 203 215 239 218 216 231 255 227 186 181 181 188 204 202 167 161 176 187 175 210 240 244 250 246 218 226 199 211 233 199 208 216 208 213 223 199 229 201 155 199 244 256 276 276 248 242 264 259 261 251 239 242 249 252 253 252 246 239
186 190 186 178 185 195 213 228 225 211 210 212 229 231 226 241 247 230 222 220 224 218 235 257 210 192 205 190 217 237 226 228 234 231 233 225 245 301 197 194 196 196 207 197 163 156 160 213 199 218 228 231 247 247 185 133 149 201 218 213 214 214 206 215 235 222 224 217 199 229 245 264 277 271 265 262 262 266 272 267 250 246 252 255 255 253 246 240
184 198 187 170 186 204 221 229 224 218 191 190 196 214 217 226 244 231 209 209 211 206 220 259 209 200 212 203 213 232 229 229 233 240 245 227 227 300 262 211 216 214 216 186 169 160 122 232 219 227 232 235 250 249 183 143 195 210 211 220 221 213 204 207 227 233 226 220 237 243 246 256 261 264 269 270 268 271 275 274 264 253 256 258 255 251 244 237
196 217 204 188 181 191 210 216 211 206 199 192 201 225 218 220 229 218 202 204 198 194 205 240 220 219 221 208 209 231 230 232 238 239 241 231 220 256 282 246 234 227 231 197 191 175 174 234 230 230 236 242 251 248 190 170 228 227 216 229 222 205 205 208 224 234 227 218 245 250 246 248 254 260 266 267 266 267 273 280 282 270 263 260 252 244 239 234
207 226 210 200 200 197 201 208 206 201 205 205 212 231 232 232 231 216 170 152 213 200 201 221 226 223 224 217 213 224 225 230 237 235 229 227 223 211 215 246 253 193 184 206 237 201 183 239 239 235 245 248 249 246 202 191 240 250 243 245 227 190 207 220 227 234 229 229 245 253 255 257 259 260 261 266 272 276 279 283 284 277 269 260 248 241 239 234
213 217 204 199 210 213 208 208 201 197 208 207 212 228 230 236 238 227 175 183 214 206 199 222 235 225 214 216 217 227 230 228 236 240 218 210 222 207 198 225 220 86 209 215 235 214 207 234 238 231 247 253 250 245 208 205 233 245 253 256 241 199 217 233 236 234 231 238 246 254 263 264 261 260 263 271 276 279 280 278 275 273 270 259 247 243 239 235
220 221 209 199 213 212 206 203 188 195 210 203 213 226 226 234 236 232 219 211 218 217 195 214 235 235 213 215 219 230 236 233 242 252 240 210 212 212 209 208 192 184 216 214 202 200 209 231 243 174 233 251 254 238 193 197 227 246 253 255 244 223 229 240 243 229 219 234 247 255 259 258 259 268 275 272 269 269 269 269 269 270 267 253 242 241 240 237
225 228 219 213 220 197 196 205 190 198 212 202 210 220 219 227 232 229 236 228 223 227 218 208 224 231 218 220 225 231 238 241 248 257 260 266 257 242 245 239 214 197 190 187 193 190 189 211 208 178 229 252 255 156 146 140 153 251 248 245 240 236 237 244 252 242 226 226 236 244 249 253 262 278 275 269 268 264 261 263 264 264 260 251 244 243 243 242